sat.trackr.live / text

‹ back to catalog

STARLINK-5655

NORAD 55336 · 2023-013F

PAYLOAD ACTIVE UNKNOWN

§ Identity

Operator
Country
US
Launch date
2023-01-26
Launch site
AFETR
Launch vehicle
Mass (kg)
RCS (m²)

Purposes: comms

External: N2YO · Heavens-Above · Gunter

§ Orbital elements

Epoch: 2026-05-25T04:48:03.551040Z

Period
94.27 min
Inclination
43.0027°
Eccentricity
0.0001843
Mean motion
15.27578431 rev/d
Perigee alt
481.8 km
Apogee alt
484.3 km
Semi-major
6,861.2 km
B*
3.2808e-5
RAAN
216.6009°
Arg perigee
288.1134°
Mean anomaly
71.9517°
Rev number
18,354

§ Raw data

STARLINK-56551 55336U 23013F   26145.20004110  .00000641  00000+0  32808-4 0  99922 55336  43.0027 216.6009 0001843 288.1134  71.9517 15.27578431183541

JSON: /api/v1/satellites/55336 · /tle

For live sub-satellite position, see the globe view (requires WebGL).

§ Visibility from observer

Set your observer location to see the next 7 days of passes ≥ 10°. The values pass through the URL so the page stays shareable.

No JS? Fill the form by hand. The geolocation button needs JavaScript.